Regional Weather Roundup
Issued by NWS

Home | Current Version | Previous Version | Graphics & Text | Print | Product List | Glossary On
Versions: 1 2 3 4 5 6 7 8 9 10 11 12 13 14 15 16 17 18 19 20 21 22 23 24 25 26 27 28 29 30 31 32 33 34 35 36 37 38 39 40 41 42 43 44 45 46 47 48 49 50
000
ASUS43 KDTX 161810
RWRMI
MICHIGAN HOURLY REGIONAL WEATHER ROUNDUP
NATIONAL WEATHER SERVICE DETROIT/PONTIAC MI
200 PM EDT WED APR 16 2014

NOTE: "FAIR" INDICATES FEW OR NO CLOUDS BELOW 12,000 FEET WITH NO
SIGNIFICANT WEATHER AND/OR OBSTRUCTION TO VISIBILITY.

MIZ047>049-052>055-059>063-066>070-074>076-081>083-161900-
SOUTHEAST LOWER MICHIGAN

CITY           SKY/WX    TMP DP  RH WIND       PRES   REMARKS
ADRIAN         SUNNY     40  17  39 S9        30.41F WCI  34
6HR MIN TEMP:  24; 6HR MAX TEMP:  41;

ALMA           MOSUNNY   40  19  44 SE8       30.39S WCI  34
ANN ARBOR      SUNNY     40  18  41 SE8       30.41F WCI  34
BAD AXE        MOSUNNY   36  17  45 S12       30.43F WCI  28
6HR MIN TEMP:  25; 6HR MAX TEMP:  36;

CARO           SUNNY     41  14  33 S6        30.40F
DETROIT CITY   MOSUNNY   41  19  41 S9        30.45S
6HR MIN TEMP:  27; 6HR MAX TEMP:  41;

DETROIT        PTSUNNY   40  21  46 SE9       30.44F WCI  34
6HR MIN TEMP:  24; 6HR MAX TEMP:  40;

FLINT          SUNNY     42  17  36 S8        30.41F
6HR MIN TEMP:  25; 6HR MAX TEMP:  42;

GROSSE ILE     SUNNY     37  21  52 SE12      30.45S WCI  30
HILLSDALE      SUNNY     41  18  39 SE14      30.37F
6HR MIN TEMP:  25; 6HR MAX TEMP:  41;

HOWELL         SUNNY     40  14  35 S7        30.39F WCI  35

CITY           SKY/WX    TMP DP  RH WIND       PRES   REMARKS
JACKSON        SUNNY     41  17  38 SE15G22   30.38F
6HR MIN TEMP:  23; 6HR MAX TEMP:  41;

LAMBERTVILLE   SUNNY     41  18  38 SE9       30.43S
LANSING        SUNNY     42  15  33 E8G22     30.38F
6HR MIN TEMP:  24; 6HR MAX TEMP:  43;

LAPEER         FAIR      39  15  36 CALM      30.41F
MASON          SUNNY     40  19  41 S7        30.38F
MONROE         SUNNY     39  19  45 SE5       30.43F
MT. CLEMENS    MOSUNNY   39  20  45 SE13      30.43F WCI  32
6HR MIN TEMP:  28; 6HR MAX TEMP:  39;

PONTIAC        MOSUNNY   38  12  34 SE10G16   30.40F WCI  31
6HR MIN TEMP:  23; 6HR MAX TEMP:  38;

PORT HOPE        N/A     33  25  72 E12       30.43F WCI  24
6HR MIN TEMP:  28; 6HR MAX TEMP:  35;

PORT HURON     SUNNY     37  16  41 S8        30.44F WCI  31
TRI CITIES     SUNNY     39  18  42 VRB7G16   30.40F WCI  34
6HR MIN TEMP:  27; 6HR MAX TEMP:  40;

TROY           SUNNY     40  15  35 SE7       30.43F
SAGINAW HB     SUNNY     41  21  45 SE9G17    30.40F
YPSILANTI      SUNNY     43  18  36 SE9G17    30.43F
6HR MIN TEMP:  26; 6HR MAX TEMP:  43;

$$
MIZ043>046-050>051-056>058-064>065-071>073-077>080-161900-
SOUTHWEST LOWER MICHIGAN

CITY           SKY/WX    TMP DP  RH WIND       PRES   REMARKS
BATTLE CREEK   SUNNY     43  18  36 S10       30.35F
6HR MIN TEMP:  26; 6HR MAX TEMP:  43;

BENTON HARBOR  SUNNY     45  20  36 S14G24    30.31F
6HR MIN TEMP:  27; 6HR MAX TEMP:  46;

BIG RAPIDS     MOSUNNY   39  19  45 SE12G21   30.32F WCI  31
6HR MIN TEMP:  22; 6HR MAX TEMP:  39;

COLDWATER      SUNNY     41  18  39 S14       30.36F
6HR MIN TEMP:  26; 6HR MAX TEMP:  41;

FREMONT        FAIR      41  18  40 SE12G18   30.32F
HOLLAND        PTSUNNY   46  21  37 S13       30.32F
6HR MIN TEMP:  28; 6HR MAX TEMP:  46;

GRAND RAPIDS   CLOUDY    45  21  38 S13G22    30.34F
6HR MIN TEMP:  27; 6HR MAX TEMP:  45;

IONIA          FAIR      41  18  39 S9G18     30.35F
KALAMAZOO      SUNNY     44  16  32 SE12G24   30.34F
6HR MIN TEMP:  27; 6HR MAX TEMP:  44;

LUDINGTON      PTSUNNY   40  22  46 SE15      30.30F WCI  32
MARSHALL       SUNNY     41  16  36 SE8       30.35F
MOUNT PLEASANT SUNNY     40  19  43 SE9G16    30.37F WCI  33
6HR MIN TEMP:  26; 6HR MAX TEMP:  40;

MUSKEGON       CLOUDY    43  18  36 S13G18    30.31F
6HR MIN TEMP:  28; 6HR MAX TEMP:  43;

SOUTH HAVEN    MOSUNNY   44  18  34 SE9G21    30.31F
$$
MIZ016>042-161900-
NORTHERN LOWER MICHIGAN

CITY           SKY/WX    TMP DP  RH WIND       PRES   REMARKS
ALPENA         CLOUDY    34  23  64 E14       30.40F WCI  25
6HR MIN TEMP:  18; 6HR MAX TEMP:  35;

BEAVER ISLAND  PTSUNNY   38  22  52 SW7       30.35F WCI  32
6HR MIN TEMP:  18; 6HR MAX TEMP:  38;

BELLAIRE       MOSUNNY   41  11  30 S6        30.34S
6HR MIN TEMP:  22; 6HR MAX TEMP:  41;

CADILLAC       MOSUNNY   38  21  49 S10       30.30S WCI  31
CHARLEVOIX     PTSUNNY   40  17  39 E6        30.37F
6HR MIN TEMP:  20; 6HR MAX TEMP:  40;

FRANKFORT      PTSUNNY   39  20  45 S8G20     30.32S WCI  34
GAYLORD        SUNNY     36  11  35 S7        30.32F WCI  30
6HR MIN TEMP:  20; 6HR MAX TEMP:  36;

GRAYLING       SUNNY     37  16  42 SE9       30.34S WCI  30
6HR MIN TEMP:  16; 6HR MAX TEMP:  38;

HARBOR SPRINGS SUNNY     40  17  40 W5        30.35S
HOUGHTON LAKE  MOSUNNY   38  16  40 S10       30.34F WCI  31
6HR MIN TEMP:  18; 6HR MAX TEMP:  38;

MANISTEE       CLOUDY    39  18  41 SW6       30.32S WCI  35
OSCODA         CLOUDY    36  17  46 S13       30.40F WCI  28
PELLSTON       SUNNY     37  12  35 VRB5      30.36F WCI  33
6HR MIN TEMP:   6; 6HR MAX TEMP:  38;

ROGERS CITY    CLOUDY    36  22  58 SE9       30.39F WCI  29
TRAVERSE CITY  CLOUDY    41  16  36 SE9       30.32F
6HR MIN TEMP:  20; 6HR MAX TEMP:  41;

$$
MIZ007>008-015-161900-
EASTERN UPPER MICHIGAN

CITY           SKY/WX    TMP DP  RH WIND       PRES   REMARKS
KINROSS        FAIR      34  10  37 SE3       30.37S
6HR MIN TEMP:  12; 6HR MAX TEMP:  36;

MACKINAC ISLAN SUNNY     30  19  63 E9        30.38R WCI  22
6HR MIN TEMP:  20; 6HR MAX TEMP:  32;

NEWBERRY       FAIR      31  19  59 S9        30.34S WCI  23
6HR MIN TEMP:  14; 6HR MAX TEMP:  31;

S. S. MARIE    FAIR      33   8  35 SW7       30.36F WCI  27
6HR MIN TEMP:  13; 6HR MAX TEMP:  33;

MUNISING         N/A     36  16  44 S9        30.31S WCI  29
6HR MIN TEMP:  12; 6HR MAX TEMP:  36;

$$
MIZ004>006-011>014-085-161900-
CENTRAL UPPER MICHIGAN

CITY           SKY/WX    TMP DP  RH WIND       PRES   REMARKS
MANISTIQUE     CLOUDY    31  27  86 S8        30.34F WCI  24
ESCANABA       CLOUDY    34  25  69 S13G18    30.31S WCI  25
6HR MIN TEMP:  16; 6HR MAX TEMP:  34;

MENOMINEE      CLOUDY    30  28  93 SE10      30.28F WCI  21
6HR MIN TEMP:  19; 6HR MAX TEMP:  36; 6HR PCP:  0.01;

SAWYER-GWINN   CLOUDY    30  18  59 S9        30.28S WCI  22
$$
MIZ001>003-009>011-084-161900-
WESTERN UPPER MICHIGAN

CITY           SKY/WX    TMP DP  RH WIND       PRES   REMARKS
IRON MOUNTAIN  SNOW      28  25  88 SE7       30.25S VSB 1/4 WCI  21
6HR MIN TEMP:  10; 6HR MAX TEMP:  30; 6HR PCP: TRACE;

HOUGHTON       CLOUDY    30  15  53 E8        30.26R WCI  22
6HR MIN TEMP:  17; 6HR MAX TEMP:  31;

COPPER HARBOR    N/A     32   6  33 SE7       30.29S WCI  26
6HR MIN TEMP:  17; 6HR MAX TEMP:  34;

IRONWOOD       CLOUDY    27  21  80 E13       30.14F VSB 3/4 WCI  16
6HR MIN TEMP:  21; 6HR MAX TEMP:  28;

$$

ABBREVIATIONS USED IN REMARKS
   TC - TEMPERATURE IN CELSIUS
  WCI - WIND CHILL INDEX
   HX - HEAT INDEX
  VSB - VISIBILITY




USA.gov is the U.S. government's official web portal to all federal, state and local government web resources and services.